Voltar ao catálogo

STARLINK-37248

AtivoComunicaçõesVLEO
NORAD 68527·PAYLOAD·🇺🇸 United States

Lançado Mar 30, 2026 de Cape Canaveral Space Force Station

Loading…

Próximas Passagens (próximas 24 horas)

TLE

AtualizadoSource: CelesTrak SupGP

Época: Sep 14, 2026, 20:59 UTC

1 68527C 26068V   26257.87479167 -.00016272  00000+0 -48085-3 0  2575
2 68527  53.1580 323.7888 0001145  85.2448 287.8810 15.34393105    12

Acompanhe STARLINK-37248 em tempo real com AllMySat

Download on the App Store